Location: Unspecified
(48.8656°N, 0.0000°E)
Time: 16:13:19
(UTC+00:00)

Transit 2A Rocket - Pass Details

Date: 23 June 2019
Orbit: 588 x 915 km, 66.7° (Epoch: 18 July)

Event Time Altitude Azimuth Distance (km) Brightness Sun altitude
Rises 18:26:46 0° 323° (NW) 3,330 9.3 13.6°
Reaches altitude 10° 18:29:18 10° 322° (NW) 2,343 8.7 13.2°
Maximum altitude 18:34:38 74° 238° (WSW) 758 5.4 12.4°
Drops below altitude 10° 18:39:26 10° 154° (SSE) 2,112 6.9 11.7°
Sets 18:41:37 0° 152° (SSE) 2,977 7.6 11.3°
